Weather History for PMDY - August, 2014

Change the Weather History Date:

Friday, August 15, 2014

  Actual Average Record
Temperature  
Mean Temperature 83 °F -  
Max Temperature 89 °F - - ()
Min Temperature 77 °F - - ()
Cooling Degree Days 18    
Growing Degree Days 33 (Base 50)    
Moisture  
Dew Point 73 °F    
Average Humidity 73    
Maximum Humidity 82    
Minimum Humidity 61    
Precipitation  
Precipitation 0.00 in - - ()
Sea Level Pressure  
Sea Level Pressure 30.89 in    
Wind  
Wind Speed 10 mph (ENE)    
Max Wind Speed 13 mph    
Max Gust Speed -    
Visibility 10 miles    
Events      
T = Trace of Precipitation, MM = Missing Value Source: NWS Daily Summary

Daily Weather History Graph

Daily Weather History Graph

Search for Another Location

Airport or City:

Trip Planner

Search our weather history database for the weather conditions in past years. The results will help you decide how hot, cold, wet, or windy it might be!

Date:

Astronomy

Aug. 15, 2014 Rise Set
Actual Time 5:19 PM GMT 6:27 AM GMT
Civil Twilight 4:54 PM GMT 6:52 AM GMT
Nautical Twilight 4:25 PM GMT 7:21 AM GMT
Astronomical Twilight 3:55 PM GMT 7:51 AM GMT
Moon 9:31 AM GMT (8/15) 10:44 PM GMT (8/15)
Length of Visible Light 13h 57m
Length of Day
13h 08m
Waning Gibbous, 71% of the Moon is Illuminated
Aug 15
Waning Gibbous
Aug 17
Last Quarter
Aug 25
New
Sep 2
First Quarter
Sep 9
Full

Hourly Weather History & Observations

Time (GMT) Temp. Heat Index Dew Point Humidity Pressure Visibility Wind Dir Wind Speed Gust Speed Precip Events Conditions
12:56 AM 86.9 °F 94.1 °F 72.9 °F 63% 31.02 in 10.0 mi ENE 10.4 mph - N/A   Scattered Clouds
1:56 AM 86.9 °F 95.0 °F 73.9 °F 65% 31.01 in 10.0 mi ENE 10.4 mph - N/A   Partly Cloudy
2:56 AM 86.9 °F 95.0 °F 73.9 °F 65% 31.00 in 10.0 mi ENE 10.4 mph - N/A   Partly Cloudy
3:56 AM 86.0 °F 93.0 °F 72.9 °F 65% 30.99 in 10.0 mi ENE 11.5 mph - N/A   Partly Cloudy
4:56 AM 83.8 °F 89.8 °F 72.9 °F 69% 30.97 in 10.0 mi ENE 10.4 mph - N/A   Clear
5:56 AM 81.9 °F 87.0 °F 72.9 °F 74% 30.98 in 10.0 mi ENE 8.1 mph - N/A   Partly Cloudy
6:56 AM 79.9 °F - 72.9 °F 79% 30.99 in 10.0 mi East 10.4 mph - N/A   Clear
7:56 AM 79.9 °F - 72.9 °F 79% 31.00 in 10.0 mi East 12.7 mph - N/A   Partly Cloudy
8:56 AM 79.9 °F - 72.0 °F 77% 31.00 in 10.0 mi ENE 11.5 mph - N/A   Partly Cloudy
9:56 AM 79.0 °F - 72.0 °F 79% 31.00 in 10.0 mi ENE 10.4 mph - N/A   Clear
10:56 AM 79.0 °F - 72.9 °F 81% 30.99 in 10.0 mi ENE 6.9 mph - N/A   Partly Cloudy
11:56 AM 79.0 °F - 72.0 °F 79% 30.99 in 10.0 mi ENE 8.1 mph - N/A   Clear
12:56 PM 79.0 °F - 72.0 °F 79% 30.98 in 10.0 mi ENE 6.9 mph - N/A   Scattered Clouds
1:21 PM 78.8 °F - 71.6 °F 78% 30.07 in 10.0 mi ENE 8.1 mph - N/A   Mostly Cloudy
1:30 PM 78.8 °F - 71.6 °F 78% 30.07 in 10.0 mi East 8.1 mph - N/A   Scattered Clouds
1:56 PM 79.0 °F - 72.0 °F 79% 30.97 in 10.0 mi ENE 6.9 mph - N/A   Clear
2:56 PM 79.0 °F - 72.9 °F 81% 30.97 in 10.0 mi ENE 6.9 mph - N/A   Partly Cloudy
3:56 PM 77.9 °F - 72.0 °F 82% 30.97 in 10.0 mi ENE 8.1 mph - N/A   Clear
4:56 PM 79.0 °F - 72.9 °F 81% 30.97 in 10.0 mi ENE 8.1 mph - N/A   Clear
5:56 PM 79.9 °F - 72.9 °F 79% 30.98 in 10.0 mi ENE 8.1 mph - N/A   Clear
6:56 PM 82.9 °F 89.4 °F 73.9 °F 74% 30.99 in 10.0 mi ENE 8.1 mph - N/A   Scattered Clouds
7:56 PM 86.0 °F 93.8 °F 73.9 °F 67% 30.98 in 10.0 mi ENE 8.1 mph - N/A   Clear
8:56 PM 86.9 °F 95.0 °F 73.9 °F 65% 30.98 in 10.0 mi ENE 10.4 mph - N/A   Clear
9:56 PM 88.0 °F 96.5 °F 73.9 °F 63% 30.99 in 10.0 mi East 10.4 mph - N/A   Mostly Cloudy
10:39 PM 89.6 °F 99.8 °F 75.2 °F 62% 30.09 in 10.0 mi East 10.4 mph - N/A   Scattered Clouds
10:56 PM 88.9 °F 97.6 °F 73.9 °F 61% 30.99 in 10.0 mi East 8.1 mph - N/A   Partly Cloudy
11:56 PM 88.9 °F 97.6 °F 73.9 °F 61% 30.98 in 10.0 mi ESE 6.9 mph - N/A   Clear